Regional Weather Roundup
Issued by NWS

Home | Current Version | Previous Version | Graphics & Text | Print | Product List | Glossary On
Versions: 1 2 3 4 5 6 7 8 9 10 11 12 13 14 15 16 17 18 19 20 21 22 23 24 25 26 27 28 29 30 31 32 33 34 35 36 37 38 39 40 41 42 43 44 45 46 47 48
183
ASUS45 KCYS 080210
RWRWY

WYOMING REGIONAL WEATHER ROUNDUP
NATIONAL WEATHER SERVICE CHEYENNE WY
700 PM MST SUN FEB 07 2016

NOTE:  "FAIR" INDICATES FEW OR NO CLOUDS BELOW 12,000 FEET
WITH NO SIGNIFICANT WEATHER AND/OR OBSTRUCTIONS TO VISIBILITY.

WYZ001-080300-
YELLOWSTONE NATIONAL PARK

CITY           SKY/WX    TMP DP  RH WIND       PRES   REMARKS
LK YELLOWSTONE   N/A     21  12  68 SE3       30.52R
W YELLOWSTONE  NOT AVBL

$$
WYZ002>013-054>058-071-098>099-080300-
NORTHERN WYOMING

CITY           SKY/WX    TMP DP  RH WIND       PRES   REMARKS
JACKSON        CLEAR     19  12  73 VRB7      30.52R WCI  10
CODY           MOCLDY    28  12  50 CALM      30.41R
GREYBULL       CLOUDY    32  16  51 W5        30.43R WCI  27
WORLAND        FAIR      27  17  66 SW7       30.43S WCI  19
SHERIDAN       PTCLDY    30  12  47 NW9       30.40F WCI  22
BUFFALO        MOCLDY    25  13  60 N6        30.39R WCI  18
GILLETTE       FAIR      26  11  52 NW15      30.37S WCI  14
HULETT         FAIR      30  12  47 NW10G22   30.35R WCI  21
NEWCASTLE      FAIR      28   9  43 NW17      30.33S WCI  16

$$
WYZ014>020-022>026-101>103-080300-
CENTRAL WYOMING

CITY           SKY/WX    TMP DP  RH WIND       PRES   REMARKS
BIG PINEY      FAIR      29  15  56 N20       30.46F WCI  16
PINEDALE       FAIR      28  14  54 W16       30.45S WCI  17
DUBOIS         FAIR      30   9  40 W25G32    30.43R WCI  16
LANDER         FAIR      24  12  60 SW5       30.42R WCI  18
RIVERTON       FAIR      26  13  57 CALM      30.43R
CASPER         FAIR      18   9  68 W7        30.41S WCI   9
DOUGLAS        FAIR      24  12  60 NW12        N/A  WCI  13

$$
WYZ021-027>030-104>119-080300-
SOUTHERN WYOMING

CITY           SKY/WX    TMP DP  RH WIND       PRES   REMARKS
EVANSTON       FAIR      26  15  63 SW7       30.56R WCI  18
FORT BRIDGER   CLEAR     28  19  69 W17       30.56S WCI  16
ROCK SPRINGS   FAIR      29  19  66 W24       30.46S WCI  15
DIXON          FAIR      11   6  79 CALM      30.51F
RAWLINS        FAIR      27  19  72 W21G30    30.39R WCI  13
SARATOGA       FAIR      28  19  69 W22G29    30.41R WCI  15
LARAMIE          N/A     18  11  74 NE7       30.31R WCI   9
CHEYENNE       FAIR      21  14  74 N10G18    30.31R WCI  10
TORRINGTON     CLOUDY    30  14  51 NW18      30.36R WCI  18
PINE BLUFFS    CLOUDY    27  16  63 N18       30.33S WCI  13

$$




USA.gov is the U.S. government's official web portal to all federal, state and local government web resources and services.